Skip Page Navigation
NASA JPL Caltech
NASA Logo - Jet Propulsion Laboratory + View the NASA Portal
+ Near-Earth Object (NEO) Program
Search JPL
JPL Home Earth Solar System Stars & Galaxies Technology
JPL Solar System Dynamics
BODIES ORBITS EPHEMERIDES TOOLS PHYSICAL DATA DISCOVERY FAQ SITE MAP
JPL Small-Body Database Browser
Search: [ help ]  
37595 (1991 UZ1)
Classification: Main-belt Asteroid          SPK-ID: 2037595
Ephemeris | Orbit Diagram | Orbital Elements | Physical Parameters | Discovery Circumstances ]

[ show orbit diagram ]
Orbital Elements at Epoch 2457000.5 (2014-Dec-09.0) TDB
Reference: JPL 13 (heliocentric ecliptic J2000)
 Element Value Uncertainty (1-sigma)   Units 
e .1181306675445516 6.3179e-08  
a 2.977317514006843 3.2144e-08 AU
q 2.62560500858513 1.8636e-07 AU
i 11.10419382744058 9.0825e-06 deg
node 28.46880559986269 3.3802e-05 deg
peri 25.21324271559257 5.0742e-05 deg
M 164.5145924906258 4.0521e-05 deg
tp 2456142.992197542350
(2012-Aug-03.49219754)
0.0002056 JED
period 1876.446363883157
5.14
3.0388e-05
8.32e-08
d
yr
n .1918520064996734 3.1069e-09 deg/d
Q 3.329030019428556 3.5941e-08 AU
  Orbit Determination Parameters
   # obs. used (total)      896  
   data-arc span      12751 days (34.91 yr)  
   first obs. used      1980-06-23  
   last obs. used      2015-05-22  
   planetary ephem.      DE431  
   SB-pert. ephem.      SB431-BIG16  
   condition code      0  
   fit RMS      .55446  
   data source      ORB  
   producer      Otto Matic  
   solution date      2015-Jun-04 17:19:12  

Additional Information
 Earth MOID = 1.64005 AU 
 T_jup = 3.222 
[ show covariance matrix ]

Ephemeris | Orbit Diagram | Orbital Elements | Physical Parameters | Discovery Circumstances ]

Physical Parameter Table
Parameter Symbol Value Units Sigma Reference Notes
absolute magnitude H 13.1 mag n/a MPO302282  

37595 (1991 UZ1)          Discovered 1991-Oct-29 by Ueda, S., Kaneda, H. at Kushiro
Reference: 20020328/Numbers.arcLast Updated: 2004-04-19

Alternate Designations
 1991 UZ1 = 1999 GS2 
Ephemeris | Orbit Diagram | Orbital Elements | Physical Parameters | Discovery Circumstances ]
ABOUT SSD CREDITS/AWARDS PRIVACY/COPYRIGHT GLOSSARY LINKS
FirstGov 2015-Jul-05 02:40 UT
(server date/time)  
NASA Home Page
Site Manager:   Ryan S. Park
Webmaster  Alan B. Chamberlin